Home   Weather   Fort Nelson   Past weeks
Flag for Canada

Past Weather in Fort Nelson, British Columbia, Canada — Yesterday and Last 2 Weeks

Now
9 °F

Partly cloudy.


Feels Like: 9 °F
Forecast: 13 / -1 °F
Wind: No wind

Location: Fort Nelson

Current Time: Nov 19, 2019 at 5:49:55 am

Latest Report: Nov 19, 2019 at 5:00 am


Visibility: 15 mi

Pressure: 30.01 "Hg

Humidity: 78%

Dew Point: 3 °F

Location of Fort NelsonLocation

Past Weather in Fort Nelson — Graph

°F

Fort Nelson Temperature Yesterday

Maximum temperature yesterday: 10 °F (at 2:00 pm)
Minimum temperature yesterday: 7 °F (at 6:00 pm)
Average temperature yesterday: 8 °F

High & Low Weather Summary for the Past Weeks

 TemperatureHumidityPressure
High27 °F (Nov 4, 4:00 am)100% (Nov 4, 10:00 am)30.81 "Hg (Nov 4, 10:00 am)
Low-8 °F (Nov 10, 8:00 am)61% (Nov 9, 5:00 pm)29.58 "Hg (Nov 17, 3:00 pm)
Average9 °F82%30.18 "Hg
* Reported Nov 4 4:00 am — Nov 19 4:00 am, Fort Nelson. Weather by CustomWeather, © 2019

Note: Actual official high and low records may vary slightly from our data, if they occured in-between our weather recording intervals... More about our weather records

Advertising

Fort Nelson Weather History for the Previous 24 Hours

Scroll right to see more
 ConditionsComfort  
Time TempWeatherWind HumidityBarometerVisibility
4:00 am
Tue, Nov 19
9 °FPassing clouds.No wind78%29.99 "Hg15 mi
3:00 am9 °FOvercast.No wind78%29.99 "Hg15 mi
2:00 am9 °FOvercast.3 mph78%29.99 "Hg15 mi
1:00 am7 °FOvercast.2 mph85%29.99 "Hg15 mi
12:00 am7 °FPassing clouds.2 mph85%29.98 "Hg15 mi
11:00 pm
Mon, Nov 18
7 °FPassing clouds.2 mph85%29.98 "Hg15 mi
10:00 pm7 °FPartly cloudy.2 mph85%29.98 "Hg15 mi
9:00 pm7 °FPassing clouds.2 mph78%29.98 "Hg15 mi
8:00 pm7 °FPartly cloudy.2 mph85%29.98 "Hg15 mi
7:00 pm7 °FPassing clouds.2 mph85%29.98 "Hg15 mi
6:00 pm7 °FPassing clouds.5 mph85%29.98 "Hg15 mi
5:00 pm9 °FPassing clouds.5 mph78%29.98 "Hg15 mi
4:00 pm9 °FPartly sunny.5 mph78%29.99 "Hg30 mi
3:00 pm10 °FPartly sunny.7 mph72%30.00 "Hg30 mi
2:00 pm10 °FPartly sunny.5 mph72%30.00 "Hg30 mi
1:00 pm9 °FPartly sunny.8 mph78%29.99 "Hg30 mi
12:00 pm9 °FPartly sunny.6 mph85%29.98 "Hg30 mi
11:00 am9 °FPartly sunny.6 mph85%29.97 "Hg30 mi
10:00 am9 °FPartly sunny.5 mph85%29.95 "Hg30 mi
9:00 am9 °FPassing clouds.2 mph85%29.93 "Hg30 mi
8:00 am9 °FPassing clouds.3 mph85%29.91 "Hg15 mi
7:00 am9 °FPassing clouds.6 mph85%29.88 "Hg15 mi
6:00 am9 °FPartly cloudy.6 mph85%29.84 "Hg15 mi
5:00 am9 °FPassing clouds.5 mph85%29.80 "Hg15 mi
Weather by CustomWeather, © 2019

See weather overview